User: anonymous   Login
Location: Forst
(46.9333°N, 15.4333°E)
Time: 05:59:59
(UTC+00:00)
Language:

CZ-4 R/B - Orbit

View from above orbital plane
View from above orbital plane
View from above satellite
View from above satellite

Ground track
Ground track

The orbit data is extracted from the following two-line orbital elements,

1 29507U 06046C   21055.81254657  .00000858  00000-0  71017-4 0  9991
2 29507  97.7193  82.3498 0049317  35.4003 325.0477 15.00665094783219
Epoch (UTC): 24 February 2021 19:30:04
Eccentricity: 0.0049317
inclination: 97.7193°
perigee height: 530 km
apogee height: 599 km
right ascension of ascending node: 82.3498°
argument of perigee: 35.4003°
revolutions per day: 15.00665094
mean anomaly at epoch: 325.0477°
orbit number at epoch: 78321

The dashed part of the orbit path shows where the satellite is in the earth's shadow,  

DLR